The Weather Page

Only for information, data not for operational purposes.

ELLX Aeronautical Report by METEOLUX

ELLX Current METAR and TAF

ELLX 180650Z 09004KT 050V140 CAVOK 20/11 Q1022 NOSIG

TAF ELLX 180500Z 1806/1912 11005KT CAVOK PROB40 TEMPO 1909/1912 25015G40KT 2000 TSRAGR BKN030CB

METAR’s and TAF’s

METAR/TAF from US-NOAA-ADDS. Enter one or more ICAO codes separated by spaces:

METAR TAF 

A list of weather stations and their ICAO and IATA codes is found on this page.

Flight Preparation

EUMETSAT Infrared

Eumetsat Infrared

METEOX Radar

METEOX Radar Image


Share this

Comments are closed.